Regional Weather Roundup
Issued by NWS Upton, NY

Current Version | Previous Version | Text Only | Print | Product List | Glossary Off
Versions: 1 2 3 4 5 6 7 8 9 10 11 12 13 14 15 16 17 18 19 20 21 22 23 24 25 26 27 28 29 30 31 32 33 34 35 36 37 38 39 40 41 42 43 44 45 46 47 48 49 50
000 ASUS41 KOKX 181905 RWROKX REGIONAL WEATHER ROUNDUP NATIONAL WEATHER SERVICE NEW YORK NY 200 PM EST THU DEC 18 2014 NOTE: "FAIR" INDICATES FEW OR NO CLOUDS BELOW 12,000 FEET WITH NO SIGNIFICANT WEATHER AND/OR OBSTRUCTIONS TO VISIBILITY. NYZ071-072-176-178-NJZ106-104-182000- NEW YORK CITY METRO AREA CITY SKY/WX TMP DP RH WIND PRES REMARKS CENTRAL PARK PTSUNNY 41 22 46 W10G20 29.95F LAGUARDIA APRT PTSUNNY 41 24 51 W15G29 29.93F KENNEDY INTL MOSUNNY 44 23 43 W16G25 29.94F NEWARK/LIBERTY PTSUNNY 42 23 46 W18 29.95F BRNX BOT. GARD N/A N/A N/A N/A NW22 29.93F TETERBORO CLOUDY 41 25 53 W16 29.93F $$ NYZ177-179-078>081-182000- LONG ISLAND NEW YORK CITY SKY/WX TMP DP RH WIND PRES REMARKS FARMINGDALE PTSUNNY 42 24 49 NW16G23 29.92F ISLIP MOSUNNY 43 25 49 W20 29.88F SHIRLEY SUNNY 43 25 49 NW15G23 29.89F WESTHAMPTON SUNNY 44 24 45 W17G25 29.89F MONTAUK POINT N/A 43 28 55 W14G25 29.86F $$ NYZ052-065-067-182000- HUDSON VALLEY CITY SKY/WX TMP DP RH WIND PRES REMARKS WHITE PLAINS MOSUNNY 40 24 53 W16G25 29.89F WCI 31 NEWBURGH MOSUNNY 39 27 60 NW17G29 29.92 WCI 30 MONTGOMERY CLOUDY 39 26 59 W12 29.90F WCI 32 POUGHKEEPSIE PTSUNNY 42 26 53 W9 29.90F ALBANY CLOUDY 36 26 67 NW15G30 29.91S WCI 27 $$ NJZ001-105-106-008-010-013-015-019>022-104-182000- NEW JERSEY CITY SKY/WX TMP DP RH WIND PRES REMARKS NEWARK/LIBERTY PTSUNNY 42 23 46 W18 29.95F TETERBORO CLOUDY 41 25 53 W16 29.93F CALDWELL MOSUNNY 40 23 50 NW16G24 29.95F WCI 31 MORRISTOWN PTSUNNY 43 25 49 W18G25 29.96F SOMERVILLE CLOUDY 41 23 48 NW13G24 29.96F SUSSEX CLOUDY 38 24 57 VRB7G16 29.94F WCI 33 ANDOVER N/A 37 23 56 VRB7 29.95F WCI 32 TRENTON CLOUDY 39 22 50 NW12G20 29.99F WCI 32 MILLVILLE MOSUNNY 39 22 50 NW18G30 30.03F WCI 30 ATLANTIC CITY SUNNY 40 23 50 W20 30.00F WCI 30 WRIGHTSTOWN PTSUNNY 41 23 49 NW15 29.97F TOMS RIVER SUNNY 41 21 45 NW20 29.98F BELMAR CLOUDY 41 21 45 W18G26 29.96F $$ PAZ047>061-062-071-182000- EASTERN PENNSYLVANIA CITY SKY/WX TMP DP RH WIND PRES REMARKS PHILADELPHIA MOSUNNY 41 23 48 W17G23 30.03F ALLENTOWN CLOUDY 39 22 50 W15G22 30.00S WCI 31 SCRANTON CLOUDY 35 25 66 NW10 29.98S WCI 27 $$ CTZ002-004>006-009-010-012-RIZ004-006-007-MAZ004-011-015-182000- SOUTHERN NEW ENGLAND IN CT CITY SKY/WX TMP DP RH WIND PRES REMARKS BRADLEY INTL CLOUDY 40 26 57 NW17G23 29.86R WCI 31 HARTFORD CLOUDY 40 26 57 W16G24 29.88R WCI 31 DANBURY PTSUNNY 41 24 51 W13G18 29.89F WTRBRY/OXFORD NOT AVBL BRIDGEPORT SUNNY 45 25 45 NW16G22 29.88F MERIDEN CLOUDY 40 26 57 NW15 29.89R WCI 32 NEW HAVEN PTSUNNY 46 26 45 NW8 29.88F CHESTER CLOUDY 39 28 65 NW12G21 29.86S WCI 32 GROTON PTSUNNY 40 27 59 NW15G28 29.85R WCI 32 WILLIMANTIC CLOUDY 41 27 57 NW6G21 29.84S IN RI CITY SKY/WX TMP DP RH WIND PRES REMARKS PROVIDENCE PTSUNNY 42 27 55 W13 29.81S BLOCK ISLAND PTSUNNY 41 27 56 NW17G24 29.83S WESTERLY CLOUDY 42 27 55 NW9 29.84S IN MA CITY SKY/WX TMP DP RH WIND PRES REMARKS BOSTON PTSUNNY 43 29 57 NW14G28 29.76F WORCESTER CLOUDY 36 27 69 W14G23 29.76F WCI 27 WESTFIELD CLOUDY 39 26 59 NW15G28 29.85R WCI 31 PROVINCETOWN CLOUDY 45 30 57 NW22G35 29.75R NANTUCKET PTSUNNY 45 29 53 W17 29.78R $$ ANZ330-335-338-340-345-350-353-355-182000- COASTAL MARINE OBSERVATIONS STATION/POSITION TIME SKY/WX TEMP WIND PRES VSBY WAVE AIR SEA DIR/SP/G HT/PER (UTC) (F) (DEG/KT/KT) (MB) (MI) (FT/S) NY HARB ENTRANCE 1900 41 47 280/ 21/ 25 1013.9 3/ 4 4S FIRE IS 1900 46 N/A 3/ 5 20S FIRE ISLAND 1800 42 50 1013.9 5/ 5 23SW MTP 1900 N/A 5/ 6 HUDSON CANYON 1900 42 55 300/ 19/ 25 1013.3 8/ 7 EXECUTION ROCKS 1900 42 42 300/ 16/ 23 N/A WESTERN LI SOUND 1900 41 300/ 16/ 21 N/A 2/ 3 CENTRAL LI SOUND 1800 42 45 290/ 16/ 19 N/A 3/ 4 EASTERN LI SOUND NOT AVBL ROBBINS REEF 1900 40 320/ 11/ 15 1012.7 $$ >>>>>>>>>>>>>>>>>>>>>>>>>>>> KEY <<<<<<<<<<<<<<<<<<<<<<<<<<< > < > SKY/WX - SKY CONDITION/PRESENT WEATHER < > TMP - TEMPERATURE IN FAHRENHEIT < > DP - DEWPOINT IN FAHRENHEIT < > RH - RELATIVE HUMIDITY IN PERCENT < > WIND - DIRECTION AND SPEED IN MPH < > PRES - MEAN SEA LEVEL PRESSURE IN INCHES OF HG < > WCI - WIND CHILL INDEX < > VSB - VISIBILITY IN MILES < > HX - HEAT INDEX < > TC - TEMPERATURE IN CELSIUS < > VRB - VARIABLE WIND DIRECTION < > < >>>>>>>>>>>>>>>>>>>>>>>>>>>> KEY <<<<<<<<<<<<<<<<<<<<<<<<<<<

USA.gov is the U.S. government's official web portal to all federal, state and local government web resources and services.